Year,Month,Day,Hour,Minute,Value (Times are PST for temperature in C)
2016,04,30,00,00,8.80
2016,04,30,00,01,8.80
2016,04,30,00,02,8.80
2016,04,30,00,03,8.80
2016,04,30,00,04,8.70
2016,04,30,00,05,8.70
2016,04,30,00,06,8.70
2016,04,30,00,07,8.70
2016,04,30,00,08,8.70
2016,04,30,00,09,8.70
2016,04,30,00,10,8.60
2016,04,30,00,11,8.60
2016,04,30,00,12,8.60
2016,04,30,00,13,8.50
2016,04,30,00,14,8.50
2016,04,30,00,15,8.50
2016,04,30,00,16,8.40
2016,04,30,00,17,8.40
2016,04,30,00,18,8.40
2016,04,30,00,19,8.40
2016,04,30,00,20,8.30
2016,04,30,00,21,8.30
2016,04,30,00,22,8.30
2016,04,30,00,23,8.30
2016,04,30,00,24,8.30
2016,04,30,00,25,8.20
2016,04,30,00,26,8.20
2016,04,30,00,27,8.20
2016,04,30,00,28,8.20
2016,04,30,00,29,8.20
2016,04,30,00,30,8.20
2016,04,30,00,31,8.10
2016,04,30,00,32,8.10
2016,04,30,00,33,8.10
2016,04,30,00,34,8.10
2016,04,30,00,35,8.00
2016,04,30,00,36,8.00
2016,04,30,00,37,8.00
2016,04,30,00,38,8.00
2016,04,30,00,39,7.90
2016,04,30,00,40,7.90
2016,04,30,00,41,7.90
2016,04,30,00,42,7.90
2016,04,30,00,43,7.90
2016,04,30,00,44,7.90
2016,04,30,00,45,7.80
2016,04,30,00,46,7.80
2016,04,30,00,47,7.80
2016,04,30,00,48,7.80
2016,04,30,00,49,7.80
2016,04,30,00,50,7.80
2016,04,30,00,51,7.80
2016,04,30,00,52,7.80
2016,04,30,00,53,7.80
2016,04,30,00,54,7.80
2016,04,30,00,55,7.70
2016,04,30,00,56,7.70
2016,04,30,00,57,7.70
2016,04,30,00,58,7.70
2016,04,30,00,59,7.70
2016,04,30,01,00,7.70
2016,04,30,01,01,7.70
2016,04,30,01,02,7.70
2016,04,30,01,03,7.70
2016,04,30,01,04,7.70
2016,04,30,01,05,7.60
2016,04,30,01,06,7.60
2016,04,30,01,07,7.60
2016,04,30,01,08,7.60
2016,04,30,01,09,7.60
2016,04,30,01,10,7.60
2016,04,30,01,11,7.60
2016,04,30,01,12,7.60
2016,04,30,01,13,7.60
2016,04,30,01,14,7.60
2016,04,30,01,15,7.60
2016,04,30,01,16,7.60
2016,04,30,01,17,7.60
2016,04,30,01,18,7.50
2016,04,30,01,19,7.50
2016,04,30,01,20,7.50
2016,04,30,01,21,7.50
2016,04,30,01,22,7.50
2016,04,30,01,23,7.50
2016,04,30,01,24,7.50
2016,04,30,01,25,7.50
2016,04,30,01,26,7.50
2016,04,30,01,27,7.50
2016,04,30,01,28,7.50
2016,04,30,01,29,7.40
2016,04,30,01,30,7.40
2016,04,30,01,31,7.40
2016,04,30,01,32,7.40
2016,04,30,01,33,7.40
2016,04,30,01,34,7.30
2016,04,30,01,35,7.30
2016,04,30,01,36,7.30
2016,04,30,01,37,7.30
2016,04,30,01,38,7.20
2016,04,30,01,39,7.20
2016,04,30,01,40,7.20
2016,04,30,01,41,7.20
2016,04,30,01,42,7.20
2016,04,30,01,43,7.20
2016,04,30,01,44,7.20
2016,04,30,01,45,7.20
2016,04,30,01,46,7.20
2016,04,30,01,47,7.20
2016,04,30,01,48,7.20
2016,04,30,01,49,7.20
2016,04,30,01,50,7.20
2016,04,30,01,51,7.20
2016,04,30,01,52,7.20
2016,04,30,01,53,7.20
2016,04,30,01,54,7.20
2016,04,30,01,55,7.20
2016,04,30,01,56,7.20
2016,04,30,01,57,7.20
2016,04,30,01,58,7.20
2016,04,30,01,59,7.20
2016,04,30,02,00,7.20
2016,04,30,02,01,7.20
2016,04,30,02,02,7.20
2016,04,30,02,03,7.20
2016,04,30,02,04,7.20
2016,04,30,02,05,7.20
2016,04,30,02,06,7.10
2016,04,30,02,07,7.10
2016,04,30,02,08,7.00
2016,04,30,02,09,7.00
2016,04,30,02,10,6.90
2016,04,30,02,11,6.90
2016,04,30,02,12,6.90
2016,04,30,02,13,6.80
2016,04,30,02,14,6.80
2016,04,30,02,15,6.80
2016,04,30,02,16,6.80
2016,04,30,02,17,6.80
2016,04,30,02,18,6.70
2016,04,30,02,19,6.70
2016,04,30,02,20,6.70
2016,04,30,02,21,6.70
2016,04,30,02,22,6.70
2016,04,30,02,23,6.70
2016,04,30,02,24,6.60
2016,04,30,02,25,6.60
2016,04,30,02,26,6.60
2016,04,30,02,27,6.60
2016,04,30,02,28,6.60
2016,04,30,02,29,6.60
2016,04,30,02,30,6.60
2016,04,30,02,31,6.50
2016,04,30,02,32,6.50
2016,04,30,02,33,6.50
2016,04,30,02,34,6.40
2016,04,30,02,35,6.40
2016,04,30,02,36,6.40
2016,04,30,02,37,6.40
2016,04,30,02,38,6.40
2016,04,30,02,39,6.40
2016,04,30,02,40,6.40
2016,04,30,02,41,6.40
2016,04,30,02,42,6.30
2016,04,30,02,43,6.30
2016,04,30,02,44,6.30
2016,04,30,02,45,6.30
2016,04,30,02,46,6.30
2016,04,30,02,47,6.30
2016,04,30,02,48,6.30
2016,04,30,02,49,6.30
2016,04,30,02,50,6.20
2016,04,30,02,51,6.20
2016,04,30,02,52,6.20
2016,04,30,02,53,6.20
2016,04,30,02,54,6.20
2016,04,30,02,55,6.20
2016,04,30,02,56,6.10
2016,04,30,02,57,6.10
2016,04,30,02,58,6.10
2016,04,30,02,59,6.10
2016,04,30,03,00,6.10
2016,04,30,03,01,6.00
2016,04,30,03,02,6.00
2016,04,30,03,06,5.90
2016,04,30,03,07,5.90
2016,04,30,03,08,5.90
2016,04,30,03,09,5.90
2016,04,30,03,10,5.80
2016,04,30,03,11,5.80
2016,04,30,03,12,5.80
2016,04,30,03,13,5.80
2016,04,30,03,14,5.80
2016,04,30,03,15,5.80
2016,04,30,03,16,5.70
2016,04,30,03,17,5.70
2016,04,30,03,18,5.70
2016,04,30,03,19,5.70
2016,04,30,03,20,5.70
2016,04,30,03,21,5.70
2016,04,30,03,22,5.60
2016,04,30,03,23,5.60
2016,04,30,03,24,5.60
2016,04,30,03,25,5.60
2016,04,30,03,26,5.60
2016,04,30,03,27,5.60
2016,04,30,03,28,5.60
2016,04,30,03,29,5.60
2016,04,30,03,30,5.60
2016,04,30,03,31,5.60
2016,04,30,03,32,5.50
2016,04,30,03,33,5.50
2016,04,30,03,34,5.50
2016,04,30,03,35,5.50
2016,04,30,03,36,5.40
2016,04,30,03,37,5.40
2016,04,30,03,38,5.40
2016,04,30,03,39,5.40
2016,04,30,03,40,5.40
2016,04,30,03,41,5.40
2016,04,30,03,42,5.30
2016,04,30,03,43,5.30
2016,04,30,03,44,5.30
2016,04,30,03,45,5.30
2016,04,30,03,46,5.30
2016,04,30,03,47,5.30
2016,04,30,03,48,5.30
2016,04,30,03,49,5.30
2016,04,30,03,50,5.30
2016,04,30,03,51,5.30
2016,04,30,03,52,5.20
2016,04,30,03,53,5.20
2016,04,30,03,54,5.20
2016,04,30,03,55,5.20
2016,04,30,03,56,5.10
2016,04,30,03,57,5.10
2016,04,30,03,58,5.10
2016,04,30,03,59,5.10
2016,04,30,04,00,5.00
2016,04,30,04,01,5.00
2016,04,30,04,02,5.00
2016,04,30,04,03,4.90
2016,04,30,04,04,4.90
2016,04,30,04,05,4.90
2016,04,30,04,06,4.90
2016,04,30,04,07,4.90
2016,04,30,04,08,4.90
2016,04,30,04,09,4.90
2016,04,30,04,10,4.90
2016,04,30,04,11,4.90
2016,04,30,04,12,4.90
2016,04,30,04,13,4.90
2016,04,30,04,14,4.90
2016,04,30,04,15,4.90
2016,04,30,04,16,4.80
2016,04,30,04,17,4.80
2016,04,30,04,18,4.80
2016,04,30,04,19,4.90
2016,04,30,04,20,4.80
2016,04,30,04,21,4.80
2016,04,30,04,22,4.80
2016,04,30,04,23,4.80
2016,04,30,04,24,4.80
2016,04,30,04,25,4.80
2016,04,30,04,26,4.80
2016,04,30,04,27,4.80
2016,04,30,04,28,4.80
2016,04,30,04,29,4.80
2016,04,30,04,30,4.70
2016,04,30,04,31,4.70
2016,04,30,04,32,4.70
2016,04,30,04,33,4.70
2016,04,30,04,34,4.70
2016,04,30,04,35,4.70
2016,04,30,04,36,4.70
2016,04,30,04,37,4.70
2016,04,30,04,38,4.70
2016,04,30,04,39,4.60
2016,04,30,04,40,4.60
2016,04,30,04,41,4.60
2016,04,30,04,42,4.60
2016,04,30,04,43,4.60
2016,04,30,04,44,4.60
2016,04,30,04,45,4.60
2016,04,30,04,46,4.60
2016,04,30,04,47,4.60
2016,04,30,04,48,4.50
2016,04,30,04,49,4.60
2016,04,30,04,50,4.60
2016,04,30,04,51,4.60
2016,04,30,04,52,4.60
2016,04,30,04,53,4.60
2016,04,30,04,54,4.60
2016,04,30,04,55,4.60
2016,04,30,04,56,4.60
2016,04,30,04,57,4.60
2016,04,30,04,58,4.60
2016,04,30,04,59,4.60
2016,04,30,05,00,4.60
2016,04,30,05,01,4.60
2016,04,30,05,02,4.50
2016,04,30,05,03,4.50
2016,04,30,05,04,4.50
2016,04,30,05,05,4.50
2016,04,30,05,06,4.50
2016,04,30,05,07,4.40
2016,04,30,05,08,4.40
2016,04,30,05,09,4.40
2016,04,30,05,10,4.40
2016,04,30,05,11,4.40
2016,04,30,05,12,4.40
2016,04,30,05,13,4.40
2016,04,30,05,14,4.40
2016,04,30,05,15,4.40
2016,04,30,05,16,4.30
2016,04,30,05,17,4.30
2016,04,30,05,18,4.30
2016,04,30,05,19,4.30
2016,04,30,05,20,4.30
2016,04,30,05,21,4.30
2016,04,30,05,22,4.30
2016,04,30,05,23,4.30
2016,04,30,05,24,4.30
2016,04,30,05,25,4.20
2016,04,30,05,26,4.20
2016,04,30,05,27,4.20
2016,04,30,05,28,4.20
2016,04,30,05,29,4.20
2016,04,30,05,30,4.20
2016,04,30,05,31,4.20
2016,04,30,05,32,4.10
2016,04,30,05,33,4.10
2016,04,30,05,34,4.10
2016,04,30,05,35,4.10
2016,04,30,05,36,4.10
2016,04,30,05,37,4.00
2016,04,30,05,38,4.00
2016,04,30,05,39,4.00
2016,04,30,05,40,3.90
2016,04,30,05,41,3.90
2016,04,30,05,42,3.90
2016,04,30,05,43,3.90
2016,04,30,05,44,3.90
2016,04,30,05,45,3.90
2016,04,30,05,46,3.80
2016,04,30,05,47,3.80
2016,04,30,05,48,3.80
2016,04,30,05,49,3.80
2016,04,30,05,50,3.90
2016,04,30,05,51,3.90
2016,04,30,05,52,3.90
2016,04,30,05,53,3.90
2016,04,30,05,54,3.90
2016,04,30,05,55,3.90
2016,04,30,05,56,3.90
2016,04,30,05,57,3.90
2016,04,30,05,58,3.90
2016,04,30,05,59,3.90
2016,04,30,06,00,3.90
2016,04,30,06,01,3.90
2016,04,30,06,02,4.00
2016,04,30,06,03,4.00
2016,04,30,06,04,4.00
2016,04,30,06,05,3.90
2016,04,30,06,06,3.90
2016,04,30,06,07,3.90
2016,04,30,06,08,3.90
2016,04,30,06,09,3.90
2016,04,30,06,10,3.90
2016,04,30,06,11,3.90
2016,04,30,06,12,3.90
2016,04,30,06,13,3.90
2016,04,30,06,14,3.90
2016,04,30,06,15,4.00
2016,04,30,06,16,4.00
2016,04,30,06,17,4.00
2016,04,30,06,18,4.00
2016,04,30,06,19,4.10
2016,04,30,06,20,4.10
2016,04,30,06,21,4.10
2016,04,30,06,22,4.10
2016,04,30,06,23,4.10
2016,04,30,06,24,4.10
2016,04,30,06,25,4.10
2016,04,30,06,26,4.10
2016,04,30,06,27,4.10
2016,04,30,06,28,4.10
2016,04,30,06,29,4.10
2016,04,30,06,30,4.10
2016,04,30,06,31,4.10
2016,04,30,06,32,4.10
2016,04,30,06,33,4.10
2016,04,30,06,34,4.10
2016,04,30,06,35,4.10
2016,04,30,06,36,4.10
2016,04,30,06,37,4.10
2016,04,30,06,38,4.10
2016,04,30,06,39,4.10
2016,04,30,06,40,4.10
2016,04,30,06,41,4.10
2016,04,30,06,42,4.10
2016,04,30,06,43,4.10
2016,04,30,06,44,4.10
2016,04,30,06,45,4.10
2016,04,30,06,46,4.20
2016,04,30,06,47,4.20
2016,04,30,06,48,4.20
2016,04,30,06,49,4.20
2016,04,30,06,50,4.20
2016,04,30,06,51,4.20
2016,04,30,06,52,4.20
2016,04,30,06,53,4.20
2016,04,30,06,54,4.20
2016,04,30,06,55,4.20
2016,04,30,06,56,4.20
2016,04,30,06,57,4.30
2016,04,30,06,58,4.30
2016,04,30,06,59,4.30
2016,04,30,07,00,4.30
2016,04,30,07,01,4.30
2016,04,30,07,02,4.30
2016,04,30,07,03,4.30
2016,04,30,07,04,4.30
2016,04,30,07,05,4.40
2016,04,30,07,06,4.40
2016,04,30,07,07,4.40
2016,04,30,07,08,4.40
2016,04,30,07,09,4.50
2016,04,30,07,10,4.50
2016,04,30,07,11,4.50
2016,04,30,07,12,4.60
2016,04,30,07,13,4.60
2016,04,30,07,14,4.60
2016,04,30,07,15,4.60
2016,04,30,07,16,4.60
2016,04,30,07,17,4.70
2016,04,30,07,18,4.70
2016,04,30,07,19,4.80
2016,04,30,07,20,4.80
2016,04,30,07,21,4.80
2016,04,30,07,22,4.90
2016,04,30,07,23,4.90
2016,04,30,07,24,5.00
2016,04,30,07,25,5.00
2016,04,30,07,26,5.00
2016,04,30,07,27,5.10
2016,04,30,07,28,5.10
2016,04,30,07,29,5.10
2016,04,30,07,30,5.20
2016,04,30,07,31,5.20
2016,04,30,07,32,5.20
2016,04,30,07,33,5.20
2016,04,30,07,34,5.30
2016,04,30,07,35,5.30
2016,04,30,07,36,5.30
2016,04,30,07,37,5.30
2016,04,30,07,38,5.40
2016,04,30,07,39,5.40
2016,04,30,07,40,5.40
2016,04,30,07,41,5.50
2016,04,30,07,42,5.50
2016,04,30,07,43,5.50
2016,04,30,07,44,5.60
2016,04,30,07,45,5.60
2016,04,30,07,46,5.70
2016,04,30,07,47,5.70
2016,04,30,07,48,5.70
2016,04,30,07,49,5.80
2016,04,30,07,50,5.80
2016,04,30,07,51,5.90
2016,04,30,07,52,5.90
2016,04,30,07,53,6.00
2016,04,30,07,54,6.10
2016,04,30,07,55,6.20
2016,04,30,07,56,6.20
2016,04,30,07,57,6.40
2016,04,30,07,58,6.50
2016,04,30,07,59,6.50
2016,04,30,08,00,6.60
2016,04,30,08,01,6.70
2016,04,30,08,02,6.80
2016,04,30,08,03,6.90
2016,04,30,08,04,7.00
2016,04,30,08,05,7.10
2016,04,30,08,06,7.20
2016,04,30,08,07,7.20
2016,04,30,08,08,7.30
2016,04,30,08,09,7.40
2016,04,30,08,10,7.50
2016,04,30,08,11,7.50
2016,04,30,08,12,7.60
2016,04,30,08,13,7.70
2016,04,30,08,14,7.80
2016,04,30,08,15,7.80
2016,04,30,08,16,7.90
2016,04,30,08,17,7.90
2016,04,30,08,18,8.00
2016,04,30,08,19,8.00
2016,04,30,08,20,8.10
2016,04,30,08,21,8.20
2016,04,30,08,22,8.30
2016,04,30,08,23,8.40
2016,04,30,08,24,8.40
2016,04,30,08,25,8.50
2016,04,30,08,26,8.60
2016,04,30,08,27,8.70
2016,04,30,08,28,8.80
2016,04,30,08,29,9.00
2016,04,30,08,30,9.10
2016,04,30,08,31,9.20
2016,04,30,08,32,9.30
2016,04,30,08,33,9.40
2016,04,30,08,34,9.50
2016,04,30,08,35,9.60
2016,04,30,08,36,9.70
2016,04,30,08,37,9.80
2016,04,30,08,38,10.00
2016,04,30,08,39,10.20
2016,04,30,08,40,10.30
2016,04,30,08,41,10.40
2016,04,30,08,42,10.60
2016,04,30,08,43,10.70
2016,04,30,08,44,10.80
2016,04,30,08,45,11.00
2016,04,30,08,46,11.10
2016,04,30,08,47,11.20
2016,04,30,08,48,11.20
2016,04,30,08,49,11.30
2016,04,30,08,50,11.30
2016,04,30,08,51,11.30
2016,04,30,08,52,11.30
2016,04,30,08,53,11.40
2016,04,30,08,54,11.40
2016,04,30,08,55,11.50
2016,04,30,08,56,11.50
2016,04,30,08,57,11.60
2016,04,30,08,58,11.60
2016,04,30,08,59,11.60
2016,04,30,09,00,11.60
2016,04,30,09,01,11.60
2016,04,30,09,02,11.60
2016,04,30,09,03,11.60
2016,04,30,09,04,11.60
2016,04,30,09,05,11.60
2016,04,30,09,06,11.60
2016,04,30,09,07,11.60
2016,04,30,09,08,11.60
2016,04,30,09,09,11.60
2016,04,30,09,10,11.60
2016,04,30,09,11,11.70
2016,04,30,09,12,11.70
2016,04,30,09,13,11.80
2016,04,30,09,14,11.80
2016,04,30,09,15,11.80
2016,04,30,09,16,11.90
2016,04,30,09,17,11.90
2016,04,30,09,18,12.00
2016,04,30,09,19,12.00
2016,04,30,09,20,12.10
2016,04,30,09,21,12.10
2016,04,30,09,22,12.10
2016,04,30,09,23,12.20
2016,04,30,09,24,12.20
2016,04,30,09,25,12.20
2016,04,30,09,26,12.20
2016,04,30,09,27,12.30
2016,04,30,09,28,12.30
2016,04,30,09,29,12.30
2016,04,30,09,30,12.30
2016,04,30,09,31,12.30
2016,04,30,09,32,12.30
2016,04,30,09,33,12.30
2016,04,30,09,34,12.30
2016,04,30,09,35,12.30
2016,04,30,09,36,12.30
2016,04,30,09,37,12.30
2016,04,30,09,38,12.30
2016,04,30,09,39,12.30
2016,04,30,09,40,12.30
2016,04,30,09,41,12.40
2016,04,30,09,42,12.40
2016,04,30,09,43,12.40
2016,04,30,09,44,12.50
2016,04,30,09,45,12.60
2016,04,30,09,46,12.60
2016,04,30,09,47,12.60
2016,04,30,09,48,12.60
2016,04,30,09,49,12.60
2016,04,30,09,50,12.60
2016,04,30,09,51,12.60
2016,04,30,09,52,12.60
2016,04,30,09,53,12.60
2016,04,30,09,54,12.60
2016,04,30,09,55,12.60
2016,04,30,09,56,12.60
2016,04,30,09,57,12.60
2016,04,30,09,58,12.60
2016,04,30,09,59,12.70
2016,04,30,10,00,12.70
2016,04,30,10,01,12.80
2016,04,30,10,02,12.80
2016,04,30,10,03,12.90
2016,04,30,10,04,13.00
2016,04,30,10,05,13.00
2016,04,30,10,06,13.10
2016,04,30,10,07,13.10
2016,04,30,10,08,13.10
2016,04,30,10,09,13.10
2016,04,30,10,10,13.00
2016,04,30,10,11,13.00
2016,04,30,10,12,13.10
2016,04,30,10,13,13.10
2016,04,30,10,14,13.20
2016,04,30,10,15,13.20
2016,04,30,10,16,13.30
2016,04,30,10,17,13.30
2016,04,30,10,18,13.30
2016,04,30,10,19,13.30
2016,04,30,10,20,13.30
2016,04,30,10,21,13.30
2016,04,30,10,22,13.40
2016,04,30,10,23,13.40
2016,04,30,10,24,13.50
2016,04,30,10,25,13.60
2016,04,30,10,26,13.70
2016,04,30,10,27,13.70
2016,04,30,10,28,13.70
2016,04,30,10,29,13.70
2016,04,30,10,30,13.70
2016,04,30,10,31,13.80
2016,04,30,10,32,13.80
2016,04,30,10,33,13.90
2016,04,30,10,34,13.90
2016,04,30,10,35,13.90
2016,04,30,10,36,14.00
2016,04,30,10,37,14.00
2016,04,30,10,38,14.00
2016,04,30,10,39,14.00
2016,04,30,10,40,14.00
2016,04,30,10,41,13.90
2016,04,30,10,42,13.90
2016,04,30,10,43,13.90
2016,04,30,10,44,13.90
2016,04,30,10,45,13.90
2016,04,30,10,46,14.00
2016,04,30,10,47,14.00
2016,04,30,10,48,14.10
2016,04,30,10,49,14.10
2016,04,30,10,50,14.10
2016,04,30,10,51,14.10
2016,04,30,10,52,14.10
2016,04,30,10,53,14.10
2016,04,30,10,54,14.20
2016,04,30,10,55,14.30
2016,04,30,10,56,14.30
2016,04,30,10,57,14.30
2016,04,30,10,58,14.40
2016,04,30,10,59,14.40
2016,04,30,11,00,14.40
2016,04,30,11,01,14.40
2016,04,30,11,02,14.50
2016,04,30,11,03,14.60
2016,04,30,11,04,14.70
2016,04,30,11,05,14.80
2016,04,30,11,06,14.90
2016,04,30,11,07,14.90
2016,04,30,11,08,15.00
2016,04,30,11,09,15.00
2016,04,30,11,10,15.00
2016,04,30,11,11,15.00
2016,04,30,11,12,14.90
2016,04,30,11,13,14.80
2016,04,30,11,14,14.70
2016,04,30,11,15,14.70
2016,04,30,11,16,14.70
2016,04,30,11,17,14.70
2016,04,30,11,18,14.80
2016,04,30,11,19,14.90
2016,04,30,11,20,14.90
2016,04,30,11,21,15.00
2016,04,30,11,22,15.00
2016,04,30,11,23,15.00
2016,04,30,11,24,15.00
2016,04,30,11,25,15.00
2016,04,30,11,26,15.00
2016,04,30,11,27,15.00
2016,04,30,11,28,15.00
2016,04,30,11,29,15.00
2016,04,30,11,30,15.10
2016,04,30,11,31,15.20
2016,04,30,11,32,15.20
2016,04,30,11,33,15.20
2016,04,30,11,34,15.20
2016,04,30,11,35,15.20
2016,04,30,11,36,15.10
2016,04,30,11,37,15.10
2016,04,30,11,38,15.10
2016,04,30,11,39,15.10
2016,04,30,11,40,15.10
2016,04,30,11,41,15.20
2016,04,30,11,42,15.20
2016,04,30,11,43,15.30
2016,04,30,11,44,15.40
2016,04,30,11,45,15.50
2016,04,30,11,46,15.60
2016,04,30,11,47,15.70
2016,04,30,11,48,15.70
2016,04,30,11,49,15.70
2016,04,30,11,50,15.80
2016,04,30,11,51,15.90
2016,04,30,11,52,16.00
2016,04,30,11,53,16.10
2016,04,30,11,54,16.10
2016,04,30,11,55,16.20
2016,04,30,11,56,16.20
2016,04,30,11,57,16.30
2016,04,30,11,58,16.40
2016,04,30,11,59,16.50
2016,04,30,12,00,16.40
2016,04,30,12,01,16.50
2016,04,30,12,02,16.50
2016,04,30,12,03,16.50
2016,04,30,12,04,16.50
2016,04,30,12,05,16.50
2016,04,30,12,06,16.50
2016,04,30,12,07,16.50
2016,04,30,12,08,16.50
2016,04,30,12,09,16.60
2016,04,30,12,10,16.60
2016,04,30,12,11,16.60
2016,04,30,12,12,16.70
2016,04,30,12,13,16.70
2016,04,30,12,14,16.70
2016,04,30,12,15,16.80
2016,04,30,12,16,16.80
2016,04,30,12,17,16.80
2016,04,30,12,18,16.80
2016,04,30,12,19,16.80
2016,04,30,12,20,16.80
2016,04,30,12,21,16.90
2016,04,30,12,22,16.90
2016,04,30,12,23,16.90
2016,04,30,12,24,16.90
2016,04,30,12,25,16.90
2016,04,30,12,26,16.90
2016,04,30,12,27,17.00
2016,04,30,12,28,17.00
2016,04,30,12,29,17.00
2016,04,30,12,30,16.90
2016,04,30,12,31,16.90
2016,04,30,12,32,16.80
2016,04,30,12,33,16.80
2016,04,30,12,34,16.80
2016,04,30,12,35,16.80
2016,04,30,12,36,16.80
2016,04,30,12,37,16.80
2016,04,30,12,38,16.80
2016,04,30,12,39,16.90
2016,04,30,12,40,16.90
2016,04,30,12,41,16.90
2016,04,30,12,42,16.90
2016,04,30,12,43,16.90
2016,04,30,12,44,17.00
2016,04,30,12,45,17.00
2016,04,30,12,46,17.00
2016,04,30,12,47,17.10
2016,04,30,12,48,17.10
2016,04,30,12,49,17.00
2016,04,30,12,50,17.00
2016,04,30,12,51,17.00
2016,04,30,12,52,17.00
2016,04,30,12,53,17.00
2016,04,30,12,54,17.10
2016,04,30,12,55,17.10
2016,04,30,12,56,17.20
2016,04,30,12,57,17.30
2016,04,30,12,58,17.30
2016,04,30,12,59,17.30
2016,04,30,13,00,17.30
2016,04,30,13,01,17.40
2016,04,30,13,02,17.40
2016,04,30,13,03,17.40
2016,04,30,13,04,17.50
2016,04,30,13,05,17.60
2016,04,30,13,06,17.60
2016,04,30,13,07,17.70
2016,04,30,13,08,17.70
2016,04,30,13,09,17.80
2016,04,30,13,10,17.80
2016,04,30,13,11,17.90
2016,04,30,13,12,17.90
2016,04,30,13,13,17.80
2016,04,30,13,14,17.70
2016,04,30,13,15,17.70
2016,04,30,13,16,17.60
2016,04,30,13,17,17.60
2016,04,30,13,18,17.60
2016,04,30,13,19,17.70
2016,04,30,13,20,17.70
2016,04,30,13,21,17.80
2016,04,30,13,22,17.90
2016,04,30,13,23,18.00
2016,04,30,13,24,18.10
2016,04,30,13,25,18.20
2016,04,30,13,26,18.30
2016,04,30,13,27,18.30
2016,04,30,13,28,18.20
2016,04,30,13,29,18.20
2016,04,30,13,30,18.20
2016,04,30,13,31,18.20
2016,04,30,13,32,18.30
2016,04,30,13,33,18.40
2016,04,30,13,34,18.40
2016,04,30,13,35,18.50
2016,04,30,13,36,18.50
2016,04,30,13,37,18.60
2016,04,30,13,38,18.60
2016,04,30,13,39,18.60
2016,04,30,13,40,18.50
2016,04,30,13,41,18.50
2016,04,30,13,42,18.50
2016,04,30,13,43,18.50
2016,04,30,13,44,18.60
2016,04,30,13,45,18.70
2016,04,30,13,46,18.70
2016,04,30,13,47,18.70
2016,04,30,13,48,18.80
2016,04,30,13,49,18.80
2016,04,30,13,50,18.80
2016,04,30,13,51,18.70
2016,04,30,13,52,18.70
2016,04,30,13,53,18.80
2016,04,30,13,54,18.70
2016,04,30,13,55,18.80
2016,04,30,13,56,18.70
2016,04,30,13,57,18.60
2016,04,30,13,58,18.60
2016,04,30,13,59,18.60
2016,04,30,14,00,18.60
2016,04,30,14,01,18.70
2016,04,30,14,02,18.70
2016,04,30,14,03,18.70
2016,04,30,14,04,18.70
2016,04,30,14,05,18.60
2016,04,30,14,06,18.50
2016,04,30,14,07,18.50
2016,04,30,14,08,18.50
2016,04,30,14,09,18.60
2016,04,30,14,10,18.60
2016,04,30,14,11,18.70
2016,04,30,14,12,18.70
2016,04,30,14,13,18.70
2016,04,30,14,14,18.70
2016,04,30,14,15,18.80
2016,04,30,14,16,18.80
2016,04,30,14,17,18.80
2016,04,30,14,18,18.80
2016,04,30,14,19,18.80
2016,04,30,14,20,18.80
2016,04,30,14,21,18.80
2016,04,30,14,22,18.80
2016,04,30,14,23,18.70
2016,04,30,14,24,18.70
2016,04,30,14,25,18.60
2016,04,30,14,26,18.60
2016,04,30,14,27,18.50
2016,04,30,14,28,18.40
2016,04,30,14,29,18.40
2016,04,30,14,30,18.40
2016,04,30,14,31,18.50
2016,04,30,14,32,18.60
2016,04,30,14,33,18.70
2016,04,30,14,34,18.70
2016,04,30,14,35,18.80
2016,04,30,14,36,18.80
2016,04,30,14,37,18.80
2016,04,30,14,38,18.90
2016,04,30,14,39,18.90
2016,04,30,14,40,18.90
2016,04,30,14,41,18.90
2016,04,30,14,42,18.90
2016,04,30,14,43,18.90
2016,04,30,14,44,18.90
2016,04,30,14,45,18.90
2016,04,30,14,46,18.90
2016,04,30,14,47,19.00
2016,04,30,14,48,19.00
2016,04,30,14,49,19.10
2016,04,30,14,50,19.20
2016,04,30,14,51,19.20
2016,04,30,14,52,19.30
2016,04,30,14,53,19.30
2016,04,30,14,54,19.30
2016,04,30,14,55,19.30
2016,04,30,14,56,19.30
2016,04,30,14,57,19.30
2016,04,30,14,58,19.30
2016,04,30,14,59,19.30
2016,04,30,15,00,19.30
2016,04,30,15,01,19.30
2016,04,30,15,02,19.30
2016,04,30,15,03,19.30
2016,04,30,15,04,19.20
2016,04,30,15,05,19.20
2016,04,30,15,06,19.30
2016,04,30,15,07,19.30
2016,04,30,15,08,19.30
2016,04,30,15,09,19.20
2016,04,30,15,10,19.20
2016,04,30,15,11,19.20
2016,04,30,15,12,19.20
2016,04,30,15,13,19.20
2016,04,30,15,14,19.10
2016,04,30,15,15,19.10
2016,04,30,15,16,19.20
2016,04,30,15,17,19.20
2016,04,30,15,18,19.20
2016,04,30,15,19,19.30
2016,04,30,15,20,19.30
2016,04,30,15,21,19.40
2016,04,30,15,22,19.50
2016,04,30,15,23,19.60
2016,04,30,15,24,19.70
2016,04,30,15,25,19.80
2016,04,30,15,26,19.70
2016,04,30,15,27,19.70
2016,04,30,15,28,19.70
2016,04,30,15,29,19.70
2016,04,30,15,30,19.70
2016,04,30,15,31,19.70
2016,04,30,15,32,19.80
2016,04,30,15,33,19.90
2016,04,30,15,34,19.90
2016,04,30,15,35,20.00
2016,04,30,15,36,20.00
2016,04,30,15,37,20.10
2016,04,30,15,38,20.00
2016,04,30,15,39,20.00
2016,04,30,15,40,20.00
2016,04,30,15,41,20.00
2016,04,30,15,42,20.00
2016,04,30,15,43,20.10
2016,04,30,15,44,20.00
2016,04,30,15,45,20.00
2016,04,30,15,46,20.00
2016,04,30,15,47,20.00
2016,04,30,15,48,20.00
2016,04,30,15,49,20.00
2016,04,30,15,50,20.00
2016,04,30,15,51,19.90
2016,04,30,15,52,19.90
2016,04,30,15,53,19.90
2016,04,30,15,54,19.80
2016,04,30,15,55,19.70
2016,04,30,15,56,19.70
2016,04,30,15,57,19.80
2016,04,30,15,58,19.80
2016,04,30,15,59,19.80
2016,04,30,16,00,19.90
2016,04,30,16,01,19.90
2016,04,30,16,02,19.90
2016,04,30,16,03,19.80
2016,04,30,16,04,19.80
2016,04,30,16,05,19.80
2016,04,30,16,06,19.80
2016,04,30,16,07,19.70
2016,04,30,16,08,19.80
2016,04,30,16,09,19.80
2016,04,30,16,10,19.80
2016,04,30,16,11,19.60
2016,04,30,16,12,19.50
2016,04,30,16,13,19.40
2016,04,30,16,14,19.30
2016,04,30,16,15,19.30
2016,04,30,16,16,19.30
2016,04,30,16,17,19.20
2016,04,30,16,18,19.20
2016,04,30,16,19,19.10
2016,04,30,16,20,19.10
2016,04,30,16,21,19.10
2016,04,30,16,22,19.10
2016,04,30,16,23,19.10
2016,04,30,16,24,19.10
2016,04,30,16,25,19.20
2016,04,30,16,26,19.20
2016,04,30,16,27,19.30
2016,04,30,16,28,19.30
2016,04,30,16,29,19.30
2016,04,30,16,30,19.40
2016,04,30,16,31,19.40
2016,04,30,16,32,19.40
2016,04,30,16,33,19.40
2016,04,30,16,34,19.40
2016,04,30,16,35,19.40
2016,04,30,16,36,19.40
2016,04,30,16,37,19.40
2016,04,30,16,38,19.40
2016,04,30,16,39,19.50
2016,04,30,16,40,19.60
2016,04,30,16,41,19.60
2016,04,30,16,42,19.70
2016,04,30,16,43,19.60
2016,04,30,16,44,19.60
2016,04,30,16,45,19.60
2016,04,30,16,46,19.60
2016,04,30,16,47,19.60
2016,04,30,16,48,19.60
2016,04,30,16,49,19.70
2016,04,30,16,50,19.70
2016,04,30,16,51,19.70
2016,04,30,16,52,19.70
2016,04,30,16,53,19.70
2016,04,30,16,54,19.70
2016,04,30,16,55,19.70
2016,04,30,16,56,19.60
2016,04,30,16,57,19.60
2016,04,30,16,58,19.50
2016,04,30,16,59,19.50
2016,04,30,17,00,19.50
2016,04,30,17,01,19.40
2016,04,30,17,02,19.40
2016,04,30,17,03,19.40
2016,04,30,17,04,19.40
2016,04,30,17,05,19.40
2016,04,30,17,06,19.30
2016,04,30,17,07,19.30
2016,04,30,17,08,19.30
2016,04,30,17,09,19.30
2016,04,30,17,10,19.30
2016,04,30,17,11,19.30
2016,04,30,17,12,19.30
2016,04,30,17,13,19.30
2016,04,30,17,14,19.30
2016,04,30,17,15,19.30
2016,04,30,17,16,19.30
2016,04,30,17,17,19.40
2016,04,30,17,18,19.40
2016,04,30,17,19,19.50
2016,04,30,17,20,19.50
2016,04,30,17,21,19.60
2016,04,30,17,22,19.60
2016,04,30,17,23,19.70
2016,04,30,17,24,19.60
2016,04,30,17,25,19.60
2016,04,30,17,26,19.60
2016,04,30,17,27,19.60
2016,04,30,17,28,19.60
2016,04,30,17,29,19.50
2016,04,30,17,30,19.50
2016,04,30,17,31,19.50
2016,04,30,17,32,19.50
2016,04,30,17,33,19.40
2016,04,30,17,34,19.40
2016,04,30,17,35,19.40
2016,04,30,17,36,19.40
2016,04,30,17,37,19.40
2016,04,30,17,38,19.40
2016,04,30,17,39,19.30
2016,04,30,17,40,19.30
2016,04,30,17,41,19.30
2016,04,30,17,42,19.30
2016,04,30,17,43,19.30
2016,04,30,17,44,19.30